Regional Weather Roundup
Issued by NWS Grand Forks, ND

Home | Current Version | Previous Version | Graphics & Text | Print | Product List | Glossary On
Versions: 1 2 3 4 5 6 7 8 9 10 11 12 13 14 15 16 17 18 19 20 21 22 23 24 25 26 27 28 29 30 31 32 33 34 35 36 37 38 39 40 41 42 43 44 45 46 47 48 49 50
000
ASUS43 KFGF 210510
RWRFGF
PRAIRIE TO PINES  WEATHER ROUNDUP
NATIONAL WEATHER SERVICE EASTERN NORTH DAKOTA/GRAND FORKS ND
1100 PM CST SAT JAN 20 2018

 **SATELLITE DATA USED TO AUGMENT SKY COVER AT AUTOMATED STATIONS**
 *****  WEATHER ACROSS EASTERN NORTH DAKOTA  *****

CITY           SKY/WX    TMP DP  RH WIND       PRES   REMARKS
GRAND FORKS    FAIR      20  19  96 S6        29.92R WCI  12
GRAND FRKS AFB FAIR      26  22  82 CALM      29.91R
DEVILS LAKE    FAIR      23  20  88 W10       29.92R WCI  12
FARGO          FAIR      29  26  89 W6        29.93R WCI  23
WAHPETON ARPT  FAIR      32  28  86 SW6       29.96R
$$

 ***** WEATHER ACROSS CENTRAL AND WESTERN NORTH DAKOTA  *****

CITY           SKY/WX    TMP DP  RH WIND       PRES   REMARKS
BISMARCK       FAIR      28  23  81 CALM      29.96R
MINOT          FAIR      26  19  74 SW9       29.93R WCI  17
JAMESTOWN      FAIR      29  24  82 NW7       29.93R WCI  22
MINOT AFB      FAIR      20  16  84 W10       29.92R WCI   9
GARRISON         N/A     20  17  88 NW6       29.94R WCI  12
WILLISTON      FAIR      20  15  81 SW6       29.95R WCI  12
DICKINSON      FAIR      26  20  77 W13       29.93R WCI  15
HETTINGER      FAIR      24  19  81 W7        29.97R WCI  16
$$

 *****  OTHER AIRPORT OBSERVATIONS IN OUR AREA  *****

CITY           SKY/WX    TMP DP  RH WIND       PRES   REMARKS
WALHALLA       FAIR      28  27  93 W8        29.91R WCI  20
GRAFTON AIRPOR NOT AVBL
VALLEY CITY AR NOT AVBL
CANDO          FAIR      18  18 100 W9        29.94R WCI   6
CAVALIER APRT    N/A     27  23  86 NW8       29.90R WCI  18
GWINNER          N/A     34  28  80 W7        29.94R
ROLLA          FAIR      25  23  93 NW6       29.91R WCI  18
 ***** THE ABOVE OBSERVATIONS ARE NON NWS ARE NOT QUALITY
       CONTROLLED AND MAY MIS-REPORT RAIN FOR SNOW...
$$

  *****  WEATHER ACROSS NORTHERN MINNESOTA  *****

CITY           SKY/WX    TMP DP  RH WIND       PRES   REMARKS
FLAG ISLAND    FAIR      25  21  86 NW3       29.85S
WARROAD        FAIR      25  19  80 W7        29.88R WCI  17
ROSEAU         FAIR      25  21  86 W8        29.88R WCI  16
HALLOCK        FAIR      18  18 100 CALM      29.89R FOG
THF RVR FALLS  FAIR      21  20  96 SW3       29.92R
BAUDETTE       FAIR      22  20  92 S3        29.86R
WASKISH        FAIR      27  25  93 SW8       29.89S WCI  18
CROOKSTON      FAIR      21  19  93 SW5       29.94R WCI  15
STEPHEN NDAWN    N/A     18  16  93 SE2         N/A
GREENBUSH NDAW   N/A     19  18  93 W5          N/A  WCI  13
$$
  *****  WEATHER ACROSS CENTRAL AND WEST MINNESOTA  *****

CITY           SKY/WX    TMP DP  RH WIND       PRES   REMARKS
FOSSTON        FAIR      18  18 100 S5        29.92R WCI  11
BEMIDJI          N/A     21  20  96 CALM      29.90S FOG
PARK RAPIDS    FOG       18  14  84 CALM      29.90R VSB 3/4
ELBOW LAKE     FAIR      30  28  94 S3        29.95R
WADENA         FAIR      27  27 100 SW3       29.91S
DETROIT LAKES  FAIR      23  23 100 CALM      29.93R
MOORHEAD       FAIR      30  27  86 CALM      29.95R
FERGUS FALLS   FAIR      28  28 100 S3        29.94R
MORRIS MN      MOCLDY    34  30  86 W5        29.95R
STAPLES        FAIR      25  25 100 CALM      29.92S
$$
  *****  WEATHER ELSEWHERE ACROSS MINNESOTA  *****

CITY           SKY/WX    TMP DP  RH WIND       PRES   REMARKS
DULUTH         FAIR      32  26  78 NW5       29.89R
INTRNTL FALLS  FAIR      22  20  92 SW5       29.87R WCI  16
ELY            NOT AVBL
CLOQUET        FAIR      30  25  80 SW3       29.91R
WHEATON        FAIR      36  28  75 W3        29.98R
BRAINERD       FAIR      30  25  81 CALM      29.93R
HIBBING        FAIR      14  13  95 W3        29.89R
ALEXANDRIA     FAIR      31  28  89 SW3       29.94R
SAINT CLOUD    CLOUDY    31  29  92 CALM      29.94S
MINNEAPOLIS    CLOUDY    34  32  92 W3        29.95R
$$

  *****  WEATHER ACROSS SOUTH DAKOTA  *****

CITY           SKY/WX    TMP DP  RH WIND       PRES   REMARKS
SIOUX FALLS    CLOUDY    33  30  88 N3        29.94R
BROOKINGS      NOT AVBL
WATERTOWN      CLOUDY    32  30  92 N5        29.93S
HURON          CLOUDY    35  33  92 NW3       29.96R
SISSETON         N/A     36  29  75 W3        29.94R
ABERDEEN       CLOUDY    33  28  81 SW5       29.97R
MITCHELL       CLOUDY    35  32  88 CALM      29.96S
PIERRE         LGT RAIN  37  32  82 N6        29.98R
MOBRIDGE       CLOUDY    35  28  75 NW6       29.94R
RAPID CITY     LGT SNOW  30  28  92 N7        29.98S FOG     WCI  23
$$

  *****  SOME WEATHER IN NEARBY STATES *****

CITY           SKY/WX    TMP DP  RH WIND       PRES   REMARKS
GLASGOW MT     FAIR      24  19  81 CALM      29.93R
GREAT FALLS MT FAIR      27  18  69 SW14      29.95R WCI  16
CHEYENNE WY    FOG       25  25 100 E7        29.81R VSB 1/4 WCI  17
SCOTTSBLUFF NE CLOUDY    32  30  92 NE12      29.88S WCI  23
OMAHA NE       CLOUDY    37  34  89 N6        29.87S
DES MOINES IA  CLOUDY    40  36  86 NE6       29.88F
DAVENPORT IA   CLOUDY    40  36  86 SE6       29.95F
CHICAGO IL     CLOUDY    40  35  83 SW6       29.99R
EAU CLAIRE WI  FAIR      29  27  92 CALM      29.93S FOG
LA CROSSE WI   FAIR      28  26  92 CALM      29.94R FOG
$$

  *****  SOME NATIONAL WEATHER *****

CITY           SKY/WX    TMP DP  RH WIND       PRES   REMARKS
LA GUARDIA NY  FAIR      45  28  51 SW8       30.04R
RALEIGH NC     FAIR      38  32  79 SW3       30.19S
ATLANTA GA     FAIR      48  38  68 W3        30.24S
NEW ORLEANS LA FAIR      56  52  86 SE10      30.19F
OKLAHOMA CITY  FAIR      55  51  86 S15       29.79S
ALBUQUERQUE NM MOCLDY    51  22  31 SW10      29.75F
SALT LAKE CITY MOCLDY    32  25  75 N12       29.96R WCI  23
LOS ANGELES CA FAIR      55  26  32 NW13      30.15R
BOISE ID       CLOUDY    35  28  75 CALM      30.12R
SEATTLE WA     CLOUDY    47  36  65 S15G25    29.96S
$$

*** WEATHER ACROSS MANITOBA...SASKATCHEWAN AND ONTARIO ***
                ***ONTARIO***

CITY           SKY/WX    TMP DP  RH WIND       PRES   REMARKS
GERALDTON      FLURRIES  10   7  85 SE3       29.92F
THUNDER BAY    CLOUDY    23  23 100 NE2       29.92R FOG
SIOUX LOOKOUT  LGT SNOW  18  16  93 NE3       29.86R
TORONTO        MOCLDY    32  27  80 SW5       30.04R
BIG TROUT LK   FLURRIES  -2  -6  84 NE3       30.05R
PICKLE LAKE    NOT AVBL
DRYDEN         FLURRIES  28  25  86 VRB2      29.83R
KENORA         MOCLDY    23  23 100 SW6       29.85R WCI  16
$$
                *** MANITOBA***

CITY           SKY/WX    TMP DP  RH WIND       PRES   REMARKS
BRANDON        MOCLDY    19  18  93 NW6       29.90R WCI  11
DAUPHIN        CLOUDY    16  14  93 N7        29.96R WCI   6
ISLAND LAKE    MOCLDY    -4  -8  84 E6        30.04R WCI -16
PILOT MOUND      N/A     23  19  86 W6          N/A  WCI  16
THE PAS        FLURRIES   1  -4  78 E6        30.01R WCI -10
THOMPSON       FLURRIES   1  -4  78 E7        30.09R WCI -11
WINNIPEG       MOCLDY    18  16  93 N8        29.91R WCI   7
LYNN LAKE      LGT SNOW  -2  -6  84 E7        30.02R WCI -16
CHURCHILL      CRYSTALS -11 -17  77 NW9       30.29R WCI -29
GILLAM         CLEAR    -17 -20  83 NE5       30.20R WCI -29
$$
                ***SASKATCHEWAN***

CITY           SKY/WX    TMP DP  RH WIND       PRES   REMARKS
ESTEVAN        CLEAR     12   9  85 SW7       29.92R WCI   2
KINDERSLEY     PTCLDY    18  16  93 E5        29.83S WCI  11
LLOYDMINSTER   FOG       21  21 100 S3        29.83R VSB 1
PRINCE ALBERT  CLOUDY    18  14  86 E5        29.91R WCI  11
REGINA         CLEAR     18  16  93 S6        29.90R WCI   9
YORKTON        CLOUDY    25  23  93 N5        29.90R WCI  19
N. BATTLEFORD  CLOUDY    25  21  86 S3        29.89R
LA RONGE       FLURRIES   9   5  85 E3        29.92R
SASKATOON      PTCLDY    12  10  92 W5        29.90R FOG     WCI   4
SWIFT CURRENT  CLEAR     19  16  86 SW10      29.84R WCI   8
$$
NOTE: THESE ARE AUTOMATED STATIONS WITH LIMITED QUALITY CONTROL
      "FAIR" INDICATES FEW OR NO CLOUDS BELOW 12,000 FEET WITH NO
      SIGNIFICANT WEATHER AND/OR OBSTRUCTIONS TO VISIBILITY.
      SKY/WX - SKY CONDITION AND SIGNIFICANT WEATHER.
      TMP - AIR TEMPERATURE.    DP   - DEWPOINT TEMPERATURE.
      RH  - RELATIVE HUMIDITY.  PRES - PRESSURE.
      HX  - HEAT INDEX.         WCI  - WIND CHILL INDEX.
$




USA.gov is the U.S. government's official web portal to all federal, state and local government web resources and services.